Weather History for Raton, NM

Change the Weather History Date:

Monday, February 4, 2013

  Actual Average (KTAD) Record (KTAD)
Temperature  
Mean Temperature 40 °F 33 °F  
Max Temperature 55 °F 48 °F 72 °F (1963)
Min Temperature 24 °F 18 °F -11 °F (1989)
Degree Days  
Heating Degree Days 26 32  
Month to date heating degree days 128  
Since 1 July heating degree days 3410  
Cooling Degree Days 0 0  
Month to date cooling degree days 0  
Year to date cooling degree days 0  
Moisture  
Dew Point 9 °F    
Average Humidity 31    
Maximum Humidity 51    
Minimum Humidity 15    
Precipitation  
Precipitation 0.00 in 0.02 in 0.57 in (1961)
Month to date precipitation 0.06  
Year to date precipitation 0.46  
Sea Level Pressure  
Sea Level Pressure 29.90 in    
Wind  
Wind Speed 8 mph (ENE)    
Max Wind Speed 15 mph    
Max Gust Speed 21 mph    
Visibility 10 miles    
Events      
T = Trace of Precipitation, MM = Missing Value Source: NWS Daily Summary

Daily Weather History Graph

Daily Weather History Graph

Search for Another Location

Airport:

Trip Planner

Search our weather history database for the weather conditions in past years. The results will help you decide how hot, cold, wet, or windy it might be!

Date:

Astronomy

Feb. 04, 2013 Rise Set
Actual Time 6:57 AM MST 5:27 PM MST
Civil Twilight 6:30 AM MST 5:54 PM MST
Nautical Twilight 5:59 AM MST 6:25 PM MST
Astronomical Twilight 5:29 AM MST 6:55 PM MST
Moon 1:33 AM MST (2/4) 11:55 AM MST (2/4)
Length of Visible Light 11h 24m
Length of Day
10h 30m
Last Quarter, 36% of the Moon is Illuminated
Feb 4
Last Quarter
Feb 10
New
Feb 17
First Quarter
Feb 25
Full
Mar 4
Last Quarter

Hourly Weather History & Observations

Time (MST) Temp. Windchill Dew Point Humidity Pressure Visibility Wind Dir Wind Speed Gust Speed Precip Events Conditions
12:53 AM 34.0 °F 28.0 °F 14.0 °F 44% 29.87 in 10.0 mi NE 6.9 mph - N/A   Clear
1:53 AM 35.1 °F 29.3 °F 10.0 °F 35% 29.87 in 10.0 mi NE 6.9 mph - N/A   Clear
4:53 AM 32.0 °F 22.1 °F 9.0 °F 38% 29.95 in 10.0 mi NNE 13.8 mph - N/A   Clear
5:53 AM 28.9 °F 25.2 °F 9.0 °F 43% 29.98 in 10.0 mi East 3.5 mph - N/A   Clear
6:53 AM 24.1 °F 15.2 °F 8.1 °F 51% 30.00 in 10.0 mi NNW 8.1 mph - N/A   Clear
7:53 AM 35.1 °F 32.2 °F 10.9 °F 37% 29.97 in 10.0 mi North 3.5 mph - N/A   Clear
8:53 AM 37.0 °F 31.6 °F 12.0 °F 36% 30.01 in 10.0 mi ESE 6.9 mph - N/A   Clear
9:53 AM 42.1 °F 40.2 °F 10.0 °F 27% 29.97 in 10.0 mi ESE 3.5 mph - N/A   Clear
10:53 AM 44.1 °F 41.5 °F 9.0 °F 24% 29.97 in 10.0 mi SSW 4.6 mph - N/A   Clear
11:53 AM 46.9 °F - 6.1 °F 19% 29.92 in 10.0 mi SSW 5.8 mph - N/A   Clear
12:53 PM 51.1 °F - 9.0 °F 18% 29.88 in 10.0 mi South 15.0 mph 19.6 mph N/A   Clear
1:53 PM 53.1 °F - 8.1 °F 16% 29.83 in 10.0 mi SSW 12.7 mph - N/A   Clear
2:53 PM 55.0 °F - 7.0 °F 15% 29.81 in 10.0 mi SSW 10.4 mph - N/A   Clear
3:53 PM 55.0 °F - 7.0 °F 15% 29.78 in 10.0 mi South 12.7 mph 20.7 mph N/A   Clear
4:53 PM 50.0 °F - 8.1 °F 18% 29.81 in 10.0 mi SSE 15.0 mph - N/A   Clear
5:53 PM 45.0 °F 38.5 °F 8.1 °F 22% 29.86 in 10.0 mi SSE 13.8 mph - N/A   Clear
6:53 PM 41.0 °F 38.0 °F 7.0 °F 25% 29.92 in 10.0 mi WNW 4.6 mph - N/A   Clear
7:53 PM 36.0 °F 29.6 °F 9.0 °F 33% 29.90 in 10.0 mi North 8.1 mph - N/A   Clear
8:53 PM 34.0 °F 28.8 °F 9.0 °F 35% 29.92 in 10.0 mi NNE 5.8 mph - N/A   Clear
9:53 PM 33.1 °F 28.7 °F 10.0 °F 38% 29.90 in 10.0 mi North 4.6 mph - N/A   Clear
10:53 PM 33.1 °F 27.7 °F 10.0 °F 38% 29.89 in 10.0 mi NE 5.8 mph - N/A   Clear
11:53 PM 28.9 °F 21.1 °F 10.0 °F 45% 29.90 in 10.0 mi North 8.1 mph - N/A   Clear